National Oceanic Atmosphere Administration National Weather Service Headquarters National Weather Service Headquarters
NOAA logo WFO Anchorage Scalable transition graphic NWS logo
Transition from title bar to navgation bar   Aviation Weather 11 AKST 
blankspace Home   |   Mobile   |   Social Media   |   Mesonet   |   Surface Map   |   Radar   |   Submit Storm Reports   |   News =20 GMT 

LocalForecast by City, St or Zip Code

spacer

Forecasts/Products
  Public
  Forecast Discussion
    - With Glossary
  Aviation
  Marine
  Hydrology(RFC)
  Rivers & Lakes AHPS
  Ice Desk
  TV Weather
  Fire Weather
  Avalanche
  Travel 511
  Graphical
  xml logo RSS Feeds
  Marine FTPMail

spacer

Data
  Mesonet
  Model Graphics
  Local Model
  Observations
  Marine Obs
  Satellite/Radar
  Vent Factor
  Soaring Index
  Weather Links

spacer

Climate
  PAFC Climate
  Interactive Climate
  PAFC Records
  Local
  National
  More

spacer

Outreach
  About Us
  Community Outreach
  Kids' Page
  Tour/Speaker Request
  Weather Classroom
  Social Media

spacer

Reports
  COOP Observers
  Local Storm Reports
  Spotter Page
  Submit a Storm Report

spacer

Miscellaneous
  Archived Alaska Weather Stories
  Student Career Opportunities
  Research Papers

spacer

Print Friendly/
Low Bandwidth

  Public Forecasts
  Marine Forecasts

spacer

Contact Us
  mailto pafcweb

spacer

Facebook Follow the National Weather Service in Alaska on Twitter
USA.gov is the U.S. government's official web portal to all federal, state and local government web resources and services.


 ICAO ID:   AAWU Graphics

Internet access to TAFs and METAR observations is for planning purposes only. We can not guarantee the timeliness of internet products. Before flying please get a formal pilot briefing (1-800-992-7433) and ALWAYS file a Flight Plan!Pilot briefings are provided to licensed aircraft pilots, ONLY! Others may not use the above number to obtain weather information.

Check out the Key to TAFs and METARs for help with decoding the information.

A 12 hour summary of TAFs can be found here.

PANC TAF
PANC 091738Z 0918/1024  VRB03KT P6SM SCT080 BKN150
     FM100000 02008KT P6SM FEW060 SCT120=




METAR PANC 091953Z 33004KT 10SM FEW070 SCT170 M04/M08 A3007 RMK AO2
     SLP187 T10391078=
METAR PANC 091953Z 33004KT 10SM FEW070 SCT170 M04/M08 A3007=
METAR PANC 091853Z 34006KT 10SM FEW070 SCT170 M05/M08 A3007 RMK AO2
     SLP187 T10501083=
METAR PANC 091853Z 34006KT 10SM FEW070 SCT170 M05/M08 A3007=
METAR PANC 091753Z 33005KT 10SM FEW070 SCT170 M04/M08 A3005 RMK AO2
     SLP180 4/001 T10441078 11022 21044 53018=
METAR PANC 091753Z 33005KT 10SM FEW070 SCT170 M04/M08 A3005=
METAR PANC 091653Z 33004KT 10SM FEW070 BKN170 M04/M07 A3003 RMK AO2
     SLP173 T10391072=
METAR PANC 091653Z 33004KT 10SM FEW070 BKN170 M04/M07 A3003=


National Weather Service
Anchorage Forecast Office
6930 Sand Lake Road
Anchorage, Ak 99502
(907) 266-5105 M-F/7-5pm
About Us
Career Opportunities
Glossary
Disclaimer
Privacy Policy
Credits
Alaska Weather Information Line:
1-800-472-0391